Wind_Speed
10 9 9 9 8 7 7 6 6 5 5 5 4 4 3 3 3 2 2 2 3 3 3 3 4 4 4 5 5 5 6 6 7 7 6 7 7 8 8 9 9 10 10
11 11 11 10 10 9 8 8 7 6 6 6 5 5 4 4 4 4 4 4 4 4 4 4 5 5 5 6 6 6 6 6 7 7 8 8 8 9 9 10 11 11 12
12 11 12 12 11 11 10 10 9 8 7 7 7 6 6 6 5 5 5 5 5 5 5 5 5 6 6 6 7 7 7 8 9 9 9 9 10 10 10 11 11 12 12
12 12 12 13 13 12 12 11 10 9 8 8 8 8 8 8 7 7 7 7 6 6 6 6 6 6 6 7 8 9 9 9 9 10 10 10 11 12 12 12 12 13 13
13 13 13 13 13 13 13 12 12 10 9 9 9 9 8 8 8 8 8 8 7 7 7 7 8 8 9 9 10 10 10 10 11 11 12 12 13 13 13 13 13 14 15
13 13 13 13 13 14 13 13 13 12 11 10 10 10 10 9 8 8 9 9 9 9 10 10 10 10 11 11 11 11 12 12 13 13 14 14 14 14 14 15 15 15 16
13 13 13 13 14 14 14 14 14 13 13 12 10 10 10 10 9 10 10 10 11 11 11 11 11 12 12 13 13 13 13 13 14 14 15 15 15 16 16 16 17 17 18
14 14 14 14 14 14 15 15 15 15 14 13 12 11 11 11 11 11 12 12 12 12 12 13 13 13 13 13 13 14 14 15 15 15 16 16 16 16 17 17 18 19 20
15 15 16 15 15 14 15 15 15 15 16 15 14 13 13 13 12 12 13 13 13 13 13 13 13 14 14 14 14 15 15 16 16 17 17 18 18 18 18 19 20 21 22
16 16 17 17 16 15 16 16 15 15 15 15 15 15 14 14 14 13 13 14 13 13 14 14 14 15 16 16 16 16 17 18 18 19 19 20 20 20 21 21 22 23 24
18 17 17 17 17 17 17 17 16 16 16 16 15 16 15 15 15 14 14 14 15 15 15 16 16 17 17 17 18 18 19 20 20 21 22 22 23 22 23 23 24 25 25
19 18 18 18 18 18 18 18 17 17 16 16 16 16 16 16 16 16 16 16 16 16 16 16 16 17 18 18 20 20 21 22 22 23 24 24 24 24 24 25 26 27 28
19 19 19 18 19 19 19 18 18 17 17 18 17 17 17 17 17 17 17 17 17 18 18 18 18 19 19 20 21 22 22 22 23 24 25 25 25 26 27 28 28 29 30
20 20 19 19 19 18 18 18 18 18 18 18 18 18 18 17 18 18 18 18 18 19 19 20 20 20 21 21 22 22 23 23 24 25 26 27 27 28 29 29 30 32 33
20 20 19 19 19 19 19 19 19 19 19 19 19 19 19 18 18 18 18 19 20 21 21 21 21 21 22 23 23 24 25 26 27 28 28 28 29 30 31 31 33 34 34
21 20 20 20 20 20 20 19 19 20 20 20 20 19 19 20 20 20 20 21 21 21 22 22 23 24 24 25 25 26 27 28 28 29 30 30 30 31 32 33 34 35 35
22 22 22 22 21 21 20 19 19 20 20 20 20 20 20 20 21 21 21 21 22 22 22 23 24 25 25 26 26 28 29 29 30 30 30 30 31 32 33 34 35 35 35
23 22 22 22 22 22 21 21 21 21 21 21 21 21 21 21 21 22 22 23 23 23 23 24 25 25 26 27 28 29 30 30 30 30 31 31 31 32 34 35 35 36 36
24 23 23 23 23 22 22 22 22 22 22 22 22 22 22 22 22 23 24 24 24 24 25 25 26 26 27 28 29 29 29 29 30 31 31 32 33 34 35 36 36 37 37
23 23 23 24 23 23 22 22 22 23 23 23 22 22 23 23 23 24 24 24 25 25 26 26 27 28 28 28 29 29 30 30 31 32 33 34 35 35 36 37 37 37 38
23 23 23 24 24 23 23 23 23 23 23 23 23 23 24 24 24 25 25 25 25 26 26 27 27 28 28 29 29 29 30 31 32 33 34 35 36 37 37 37 38 39 40
23 23 22 23 23 24 23 23 22 22 23 24 24 24 24 24 24 25 25 26 26 26 27 27 28 28 29 30 30 31 32 33 34 35 36 36 37 37 37 38 40 41 42
24 24 23 23 23 24 23 23 23 23 23 24 24 24 24 25 25 25 25 26 26 26 27 28 28 29 30 30 31 32 33 34 35 36 37 38 38 39 39 40 42 42 43
24 24 24 23 23 23 23 23 23 23 23 24 24 24 24 24 25 25 26 26 27 27 28 29 30 30 30 31 32 33 34 35 36 37 38 39 39 40 41 41 42 43 44
24 23 23 23 23 22 22 22 22 23 23 23 24 25 25 25 25 25 26 26 27 28 29 30 30 31 32 33 34 35 36 37 38 39 40 40 41 41 42 43 43 44 44
23 23 23 23 23 22 22 22 22 22 23 23 23 24 25 25 26 27 27 27 28 29 30 31 32 33 33 34 35 36 37 39 40 40 42 42 42 42 42 43 43 43 44
Wind_Direction
249 248 246 244 243 238 235 233 228 227 231 234 232 236 234 222 232 242 246 262 267 262 266 274 278 279 285 291 294 299 302 299 297 300 299 300 300 300 298 298 298 298 299
248 247 246 244 241 239 236 230 226 228 235 236 236 238 239 236 237 247 259 266 265 262 270 277 281 280 281 286 292 302 303 304 306 302 296 297 299 299 296 297 297 298 299
249 247 244 242 241 240 233 229 232 234 237 237 237 239 244 246 248 254 260 265 265 265 270 277 279 281 279 283 289 295 300 304 306 300 300 295 296 297 295 295 294 297 297
252 248 245 242 241 237 232 232 233 237 239 241 242 245 251 250 249 255 257 260 262 265 269 272 275 280 281 286 291 293 294 296 300 300 301 300 297 296 295 297 295 294 295
253 248 244 243 241 236 233 232 232 236 240 245 247 248 252 253 252 256 257 260 262 264 268 274 277 280 282 286 290 291 291 293 296 299 299 298 297 297 294 294 296 296 293
250 249 245 240 237 234 233 233 234 235 238 244 247 250 249 249 253 254 257 260 264 265 268 273 276 278 282 285 288 288 290 293 297 297 298 297 296 296 295 293 295 297 297
249 247 242 238 236 233 234 236 239 239 239 242 247 247 244 249 255 257 261 264 265 266 268 272 275 278 282 284 286 287 289 292 295 297 297 298 296 296 296 295 295 295 295
249 247 241 238 237 236 237 237 239 241 243 246 249 248 246 251 257 260 263 265 265 266 269 273 276 279 283 285 285 286 288 290 294 296 297 297 297 296 297 298 297 297 297
249 248 243 240 239 239 239 239 240 242 243 245 247 247 249 253 258 262 264 264 265 267 271 274 277 280 283 286 287 288 290 292 295 296 296 296 295 295 296 296 296 296 297
248 248 245 241 240 239 240 240 242 242 243 245 248 249 251 255 259 264 266 265 267 269 270 274 278 283 285 286 287 288 291 293 294 294 294 295 294 294 295 296 296 296 296
246 245 245 243 242 242 242 242 243 243 245 248 249 251 253 256 261 265 267 268 269 272 273 275 278 282 284 285 287 289 291 292 293 294 293 294 294 293 294 295 295 296 297
244 244 245 244 243 245 244 242 243 246 248 249 250 252 255 259 261 262 266 269 270 271 274 277 281 283 286 287 288 291 291 292 292 293 294 293 293 292 294 295 296 297 298
242 244 245 245 243 244 244 243 244 247 249 249 251 253 257 261 261 263 266 268 271 271 272 275 280 284 287 289 290 292 293 295 295 295 295 295 294 293 293 295 296 298 299
243 242 242 243 241 240 243 245 246 248 249 250 252 255 258 261 263 263 264 268 270 271 272 276 281 284 287 289 291 292 293 295 296 296 296 296 295 294 294 294 296 297 298
242 241 241 242 242 241 243 246 248 249 250 251 253 256 258 262 263 264 266 270 272 274 276 279 282 285 287 290 292 293 294 294 295 296 296 296 296 294 295 296 297 297 298
241 243 243 243 244 243 243 246 249 250 252 253 254 257 259 261 264 267 270 271 273 275 277 279 282 284 287 289 291 293 294 296 297 298 298 297 296 295 296 297 297 298 298
243 244 245 245 245 245 246 247 251 251 252 253 255 257 260 263 265 268 271 273 275 277 279 281 283 284 287 289 291 293 295 296 297 297 297 297 297 297 297 298 299 299 299
243 244 245 245 247 248 248 250 252 253 252 253 255 258 262 264 266 268 271 274 277 278 280 282 284 286 288 290 292 294 295 296 297 297 297 297 298 299 299 299 299 299 300
243 243 244 246 247 250 250 251 254 254 254 255 258 260 262 264 267 269 272 276 277 278 280 282 285 288 290 291 292 294 296 296 297 297 297 297 298 298 299 300 300 300 300
243 244 244 246 247 250 253 254 256 256 255 256 257 261 264 265 267 270 274 276 277 279 281 283 285 288 290 292 293 294 295 296 297 297 297 298 298 299 299 300 300 300 300
243 245 246 247 247 249 252 255 256 257 256 256 258 263 265 267 268 271 274 276 277 280 282 284 286 288 291 293 294 294 296 297 297 298 299 299 299 300 300 300 300 301 301
246 247 249 248 247 249 251 253 255 256 258 260 261 263 266 268 270 273 275 276 277 279 282 284 287 289 292 293 293 295 296 298 298 299 299 299 300 300 300 300 301 302 302
248 248 249 249 249 249 250 253 254 257 259 261 262 264 265 267 270 273 275 276 277 280 282 284 287 289 291 293 295 296 297 298 300 301 301 301 301 301 300 301 302 303 303
248 249 249 250 250 250 252 253 255 257 260 261 263 266 268 269 271 273 276 278 279 280 283 285 286 288 290 293 295 297 298 299 300 301 302 301 301 302 302 303 303 303 303
246 248 250 250 251 251 253 254 255 257 260 263 265 267 270 272 273 276 279 280 281 282 284 286 287 289 291 293 295 297 299 300 301 302 302 302 302 303 303 304 304 304 304
246 248 249 250 250 251 253 255 257 260 264 266 266 268 271 273 275 277 279 281 282 285 286 287 288 290 292 293 295 297 299 301 302 302 302 303 303 303 304 304 304 304 304
Height
5849 5849 5849 5850 5850 5850 5850 5850 5851 5851 5852 5852 5852 5852 5852 5852 5853 5853 5853 5853 5853 5853 5853 5852 5852 5852 5852 5851 5851 5850 5849 5848 5847 5846 5845 5844 5843 5842 5841 5840 5839 5838 5836
5846 5847 5847 5847 5847 5848 5848 5849 5849 5850 5850 5850 5851 5851 5851 5851 5851 5852 5852 5852 5852 5852 5852 5851 5851 5851 5850 5850 5849 5848 5848 5847 5846 5844 5843 5842 5841 5840 5839 5838 5836 5835 5834
5843 5844 5844 5844 5845 5845 5846 5847 5848 5848 5848 5849 5849 5849 5850 5850 5850 5850 5850 5850 5850 5850 5850 5850 5850 5849 5849 5848 5848 5847 5846 5845 5844 5842 5841 5840 5839 5838 5837 5835 5834 5833 5831
5840 5841 5841 5842 5842 5843 5844 5845 5845 5846 5847 5847 5847 5847 5848 5848 5848 5848 5849 5848 5848 5848 5848 5848 5848 5848 5847 5847 5846 5845 5844 5843 5842 5840 5839 5838 5837 5835 5834 5833 5831 5830 5828
5837 5837 5838 5839 5839 5840 5841 5842 5843 5844 5845 5845 5845 5845 5845 5846 5846 5846 5846 5846 5846 5846 5846 5846 5846 5846 5845 5845 5844 5843 5842 5841 5839 5838 5837 5835 5834 5833 5831 5830 5828 5826 5825
5834 5834 5835 5835 5836 5837 5838 5839 5840 5841 5842 5843 5843 5843 5843 5843 5844 5844 5844 5844 5844 5844 5844 5844 5844 5843 5843 5842 5841 5840 5839 5838 5837 5835 5834 5832 5831 5830 5828 5827 5825 5823 5821
5830 5831 5831 5832 5833 5834 5835 5836 5837 5838 5839 5840 5840 5840 5841 5841 5841 5841 5841 5841 5841 5841 5841 5841 5841 5840 5840 5839 5838 5837 5836 5835 5834 5832 5831 5829 5828 5826 5824 5823 5821 5819 5817
5827 5827 5828 5829 5830 5831 5832 5833 5834 5835 5836 5837 5837 5837 5838 5838 5838 5838 5838 5838 5838 5838 5838 5838 5838 5837 5836 5835 5835 5834 5832 5831 5830 5828 5827 5825 5823 5822 5820 5818 5817 5815 5812
5823 5824 5825 5826 5826 5827 5828 5829 5830 5831 5833 5833 5834 5834 5835 5835 5835 5835 5835 5835 5835 5835 5835 5834 5834 5834 5833 5832 5831 5830 5829 5827 5825 5824 5822 5821 5819 5817 5815 5814 5812 5810 5807
5819 5819 5820 5822 5823 5824 5825 5826 5827 5828 5829 5830 5830 5831 5831 5831 5831 5831 5831 5831 5831 5831 5831 5831 5830 5830 5829 5828 5827 5825 5824 5823 5821 5819 5818 5816 5814 5812 5810 5808 5806 5804 5801
5814 5815 5816 5817 5818 5820 5821 5822 5823 5824 5825 5826 5826 5827 5827 5827 5828 5828 5828 5828 5827 5827 5827 5827 5826 5825 5824 5823 5822 5820 5819 5817 5816 5814 5812 5810 5808 5806 5804 5802 5800 5797 5795
5809 5810 5811 5813 5814 5815 5816 5818 5819 5820 5821 5821 5822 5823 5823 5823 5824 5824 5824 5824 5823 5823 5823 5822 5821 5821 5819 5818 5817 5815 5813 5812 5810 5808 5806 5804 5802 5800 5798 5795 5793 5790 5787
5804 5805 5806 5808 5809 5810 5811 5813 5814 5815 5816 5817 5818 5818 5819 5819 5819 5819 5819 5819 5819 5818 5818 5817 5816 5815 5814 5813 5811 5809 5807 5805 5804 5802 5800 5798 5795 5793 5791 5788 5785 5782 5779
5798 5800 5801 5802 5804 5805 5806 5808 5809 5810 5811 5812 5813 5813 5814 5814 5814 5814 5814 5814 5813 5813 5812 5812 5811 5810 5808 5807 5805 5803 5801 5799 5797 5795 5793 5791 5788 5785 5783 5780 5777 5774 5770
5793 5794 5796 5797 5799 5800 5801 5802 5803 5805 5805 5807 5807 5808 5809 5809 5809 5809 5809 5809 5808 5808 5807 5806 5805 5804 5803 5801 5799 5797 5795 5793 5790 5788 5785 5783 5780 5777 5774 5771 5768 5765 5761
5787 5789 5790 5792 5793 5794 5795 5797 5798 5799 5800 5801 5802 5802 5803 5803 5803 5803 5803 5803 5802 5802 5801 5800 5799 5798 5796 5795 5793 5790 5788 5786 5783 5780 5777 5774 5772 5769 5766 5762 5759 5756 5752
5781 5783 5784 5786 5787 5788 5789 5791 5792 5793 5794 5795 5796 5797 5797 5797 5797 5797 5797 5797 5796 5796 5795 5794 5792 5791 5789 5788 5785 5783 5781 5778 5775 5772 5769 5766 5763 5760 5757 5754 5750 5746 5742
5775 5776 5778 5779 5781 5782 5784 5785 5786 5787 5788 5789 5790 5790 5791 5791 5791 5791 5791 5790 5790 5789 5788 5787 5785 5784 5782 5780 5778 5775 5773 5770 5767 5764 5761 5758 5755 5751 5748 5744 5741 5737 5733
5767 5769 5771 5773 5774 5776 5777 5778 5779 5780 5781 5782 5783 5784 5784 5784 5784 5784 5784 5783 5783 5781 5780 5779 5778 5776 5774 5772 5770 5767 5765 5762 5759 5756 5753 5749 5746 5742 5739 5735 5731 5727 5723
5761 5762 5764 5766 5767 5769 5770 5772 5773 5773 5774 5775 5776 5776 5777 5777 5777 5777 5776 5776 5775 5774 5773 5771 5770 5768 5766 5764 5762 5759 5756 5753 5750 5747 5744 5740 5737 5733 5729 5725 5721 5717 5713
5754 5755 5757 5759 5760 5762 5763 5765 5766 5767 5767 5768 5769 5769 5769 5769 5769 5769 5769 5768 5767 5766 5765 5763 5762 5760 5758 5755 5753 5751 5748 5745 5742 5738 5735 5731 5727 5723 5719 5715 5711 5706 5702
5747 5749 5750 5752 5753 5755 5756 5758 5759 5760 5760 5761 5761 5762 5762 5762 5762 5761 5761 5760 5759 5758 5757 5755 5754 5752 5749 5747 5745 5742 5739 5736 5732 5729 5725 5721 5717 5713 5709 5705 5700 5695 5691
5740 5742 5744 5745 5746 5748 5749 5750 5751 5752 5753 5753 5754 5754 5754 5754 5754 5753 5753 5752 5751 5750 5748 5747 5745 5743 5741 5739 5736 5733 5730 5727 5723 5719 5715 5711 5706 5702 5698 5693 5689 5684 5679
5733 5735 5736 5738 5739 5740 5742 5743 5744 5745 5745 5746 5746 5746 5746 5746 5746 5745 5745 5744 5742 5741 5740 5738 5737 5735 5732 5730 5727 5724 5720 5717 5713 5709 5704 5700 5696 5691 5686 5682 5677 5671 5666
5726 5728 5729 5730 5732 5733 5735 5736 5737 5737 5738 5738 5738 5739 5738 5738 5738 5737 5736 5735 5734 5733 5731 5730 5728 5725 5723 5720 5717 5714 5711 5707 5702 5698 5693 5689 5685 5680 5675 5670 5664 5659 5654
5719 5720 5722 5723 5725 5726 5728 5729 5729 5730 5731 5731 5731 5731 5730 5730 5729 5729 5728 5727 5725 5724 5722 5720 5718 5716 5713 5710 5707 5704 5700 5696 5691 5687 5682 5678 5673 5668 5663 5658 5652 5647 5642